Point Mugu Nawc, CA

10:30 AM PST on February 12, 2016 (GMT -0800)
Point Mugu Naval Air Station

Weather History for KNTD - February, 2012

Change the Weather History Date:

Sunday, February 5, 2012

  Actual Average Record
Temperature  
Mean Temperature 60 °F -  
Max Temperature 72 °F 61 °F 82 °F (2007)
Min Temperature 48 °F 43 °F 39 °F (2003)
Degree Days  
Heating Degree Days 5    
Growing Degree Days 10 (Base 50)    
Moisture  
Dew Point 35 °F    
Average Humidity 46    
Maximum Humidity 90    
Minimum Humidity 19    
Precipitation  
Precipitation 0.00 in - - ()
Sea Level Pressure  
Sea Level Pressure 30.03 in    
Wind  
Wind Speed 15 mph (East)    
Max Wind Speed 20 mph    
Max Gust Speed 30 mph    
Visibility 7 miles    
Events      
Averages and records for this station are not official NWS values.
T = Trace of Precipitation, MM = Missing Value Source: NWS Daily Summary

Daily Weather History Graph

Daily Weather History Graph

Search for Another Location

Airport or City:

Trip Planner

Search our weather history database for the weather conditions in past years. The results will help you decide how hot, cold, wet, or windy it might be!

Date:

Astronomy

Feb. 05, 2012 Rise Set
Actual Time 6:50 AM PST 5:30 PM PST
Civil Twilight 6:24 AM PST 5:56 PM PST
Nautical Twilight 5:55 AM PST 6:26 PM PST
Astronomical Twilight 5:25 AM PST 6:55 PM PST
Moon 3:37 PM PST (2/5) 5:01 AM PST (2/5)
Length of Visible Light 11h 31m
Length of Day
10h 39m
Waxing Gibbous, 95% of the Moon is Illuminated
Feb 5
Waxing Gibbous
Feb 7
Full
Feb 14
Last Quarter
Feb 21
New
Feb 29
First Quarter

Hourly Weather History & Observations

Time (PST) Temp. Dew Point Humidity Pressure Visibility Wind Dir Wind Speed Gust Speed Precip Events Conditions
12:54 AM 59.0 °F 24.1 °F 26% 30.04 in - East 19.6 mph - N/A   Clear
1:54 AM 59.0 °F 24.1 °F 26% 30.04 in - East 19.6 mph - N/A   Clear
2:54 AM 57.9 °F 24.1 °F 27% 30.03 in - ENE 17.3 mph - N/A   Clear
3:54 AM 59.0 °F 23.0 °F 25% 30.03 in - ENE 17.3 mph - N/A   Clear
4:54 AM 57.9 °F 23.0 °F 26% 30.04 in - ENE 17.3 mph - N/A   Clear
5:54 AM 57.0 °F 23.0 °F 27% 30.04 in 7.0 mi ENE 17.3 mph - N/A   Clear
6:54 AM 55.9 °F 24.1 °F 29% 30.06 in 7.0 mi East 17.3 mph - N/A   Clear
7:54 AM 60.1 °F 24.1 °F 25% 30.06 in 7.0 mi ENE 18.4 mph - N/A   Clear
8:54 AM 64.0 °F 26.1 °F 24% 30.06 in 7.0 mi ENE 19.6 mph 27.6 mph N/A   Clear
9:54 AM 66.9 °F 26.1 °F 21% 30.07 in 7.0 mi ENE 18.4 mph 29.9 mph N/A   Clear
10:54 AM 70.0 °F 26.1 °F 19% 30.07 in 7.0 mi ENE 16.1 mph 24.2 mph N/A   Scattered Clouds
11:54 AM 72.0 °F 27.0 °F 19% 30.04 in 7.0 mi ENE 11.5 mph 21.9 mph N/A   Scattered Clouds
12:54 PM 69.1 °F 36.0 °F 30% 30.02 in 7.0 mi South 12.7 mph 18.4 mph N/A   Scattered Clouds
1:54 PM 68.0 °F 37.0 °F 32% 30.01 in 7.0 mi South 10.4 mph - N/A   Scattered Clouds
2:54 PM 64.9 °F 48.0 °F 54% 30.00 in 7.0 mi SSW 10.4 mph - N/A   Scattered Clouds
3:54 PM 61.0 °F 51.1 °F 70% 29.99 in 7.0 mi SW 5.8 mph - N/A   Scattered Clouds
4:54 PM 60.1 °F 48.9 °F 67% 29.97 in 7.0 mi South 3.5 mph - N/A   Mostly Cloudy
5:54 PM 55.9 °F 48.0 °F 75% 29.99 in 7.0 mi SSE 3.5 mph - N/A   Mostly Cloudy
6:06 PM - - N/A% - - North - - N/A   Unknown
6:15 PM - - N/A% - - North - - N/A   Unknown
6:54 PM 51.1 °F 46.9 °F 86% 30.00 in 7.0 mi ENE 5.8 mph - N/A   Scattered Clouds
7:54 PM 51.1 °F 43.0 °F 74% 30.00 in 7.0 mi Calm Calm - N/A   Mostly Cloudy
8:54 PM 51.1 °F 44.1 °F 77% 30.01 in 7.0 mi West 3.5 mph - N/A   Mostly Cloudy
9:54 PM 48.9 °F 43.0 °F 80% 30.02 in 7.0 mi ENE 6.9 mph - N/A   Scattered Clouds
10:54 PM 48.9 °F 45.0 °F 86% 30.04 in 7.0 mi Calm Calm - N/A   Partly Cloudy
11:54 PM 48.9 °F 46.0 °F 90% 30.02 in - ENE 5.8 mph - N/A   Clear